| time (UTC) | temp F | wind direction | speed MPH | gust MPH | rain 1hr in | rain 24hr in | rain mn in | humidity % | barometer mb |
| 20260902184845 | 96 | 223 | 6.0 | 9.0 | 0.00 | 0.00 | 0.00 | 50 | 1012.3 |
| 20260902184341 | 96 | 244 | 4.0 | 6.0 | 0.00 | 0.00 | 0.00 | 51 | 1012.3 |
| 20260902183836 | 97 | 227 | 5.0 | 10.0 | 0.00 | 0.00 | 0.00 | 51 | 1012.4 |
| 20260902183332 | 97 | 228 | 6.0 | 9.0 | 0.00 | 0.00 | 0.00 | 50 | 1012.6 |
| 20260902182828 | 96 | 211 | 5.0 | 9.0 | 0.00 | 0.00 | 0.00 | 53 | 1012.7 |
| 20260902182324 | 95 | 232 | 3.0 | 8.0 | 0.00 | 0.00 | 0.00 | 54 | 1012.8 |
| 20260902181820 | 96 | 198 | 4.0 | 8.0 | 0.00 | 0.00 | 0.00 | 54 | 1012.7 |
| 20260902181316 | 95 | 299 | 3.0 | 7.0 | 0.00 | 0.00 | 0.00 | 54 | 1013.0 |
| 20260902180810 | 94 | 238 | 5.0 | 9.0 | 0.00 | 0.00 | 0.00 | 56 | 1013.2 |
| 20260902180306 | 94 | 210 | 3.0 | 9.0 | 0.00 | 0.00 | 0.00 | 56 | 1012.9 |
| 20260902175801 | 93 | 177 | 4.0 | 4.0 | 0.00 | 0.00 | 0.00 | 56 | 1013.3 |
| 20260902175256 | 94 | 239 | 6.0 | 11.0 | 0.00 | 0.00 | 0.00 | 56 | 1013.3 |
| 20260902174757 | 94 | 301 | 6.0 | 11.0 | 0.00 | 0.00 | 0.00 | 56 | 1013.3 |
| 20260902174253 | 93 | 209 | 3.0 | 7.0 | 0.00 | 0.00 | 0.00 | 57 | 1013.4 |
| 20260902173748 | 94 | 187 | 4.0 | 10.0 | 0.00 | 0.00 | 0.00 | 57 | 1013.5 |
| 20260902173243 | 93 | 201 | 7.0 | 11.0 | 0.00 | 0.00 | 0.00 | 58 | 1013.6 |
| 20260902172738 | 92 | 236 | 6.0 | 8.0 | 0.00 | 0.00 | 0.00 | 61 | 1013.7 |
| 20260902172237 | 92 | 189 | 5.0 | 10.0 | 0.00 | 0.00 | 0.00 | 62 | 1013.7 |
| 20260902171732 | 91 | 280 | 5.0 | 8.0 | 0.00 | 0.00 | 0.00 | 62 | 1014.0 |
| 20260902171227 | 91 | 254 | 7.0 | 8.0 | 0.00 | 0.00 | 0.00 | 63 | 1014.1 |
| 20260902170724 | 91 | 213 | 4.0 | 9.0 | 0.00 | 0.00 | 0.00 | 64 | 1014.0 |
| 20260902170220 | 90 | 205 | 7.0 | 9.0 | 0.00 | 0.00 | 0.00 | 64 | 1014.1 |
| 20260902165720 | 90 | 221 | 6.0 | 9.0 | 0.00 | 0.00 | 0.00 | 66 | 1014.2 |
| 20260902165214 | 90 | 240 | 6.0 | 11.0 | 0.00 | 0.00 | 0.00 | 64 | 1014.3 |
| 20260902164709 | 90 | 281 | 4.0 | 10.0 | 0.00 | 0.00 | 0.00 | 66 | 1014.2 |
| 20260902164209 | 90 | 249 | 4.0 | 11.0 | 0.00 | 0.00 | 0.00 | 68 | 1014.2 |
| 20260902163703 | 90 | 228 | 5.0 | 8.0 | 0.00 | 0.00 | 0.00 | 67 | 1014.4 |
| 20260902163203 | 90 | 225 | 6.0 | 9.0 | 0.00 | 0.00 | 0.00 | 67 | 1014.4 |
| 20260902162702 | 89 | 259 | 6.0 | 10.0 | 0.00 | 0.00 | 0.00 | 68 | 1014.4 |
| 20260902162156 | 89 | 241 | 6.0 | 15.0 | 0.00 | 0.00 | 0.00 | 69 | 1014.4 |
| 20260902161652 | 89 | 218 | 5.0 | 11.0 | 0.00 | 0.00 | 0.00 | 71 | 1014.4 |
| 20260902161147 | 89 | 218 | 6.0 | 14.0 | 0.00 | 0.00 | 0.00 | 70 | 1014.5 |
| 20260902160644 | 89 | 224 | 8.0 | 9.0 | 0.00 | 0.00 | 0.00 | 71 | 1014.5 |
| 20260902160138 | 88 | 186 | 1.0 | 8.0 | 0.00 | 0.00 | 0.00 | 73 | 1014.5 |
| 20260902155637 | 87 | 252 | 5.0 | 10.0 | 0.00 | 0.00 | 0.00 | 74 | 1014.4 |
| 20260902155135 | 87 | 230 | 5.0 | 7.0 | 0.00 | 0.00 | 0.00 | 76 | 1014.4 |
| 20260902154631 | 86 | 225 | 5.0 | 13.0 | 0.00 | 0.00 | 0.00 | 76 | 1014.4 |
| 20260902154126 | 86 | 219 | 7.0 | 11.0 | 0.00 | 0.00 | 0.00 | 77 | 1014.5 |
| 20260902153625 | 86 | 209 | 7.0 | 13.0 | 0.00 | 0.00 | 0.00 | 77 | 1014.3 |
| 20260902153120 | 86 | 244 | 4.0 | 11.0 | 0.00 | 0.00 | 0.00 | 77 | 1014.3 |
| 20260902152616 | 86 | 254 | 6.0 | 10.0 | 0.00 | 0.00 | 0.00 | 78 | 1014.4 |
| 20260902152112 | 86 | 225 | 4.0 | 10.0 | 0.00 | 0.00 | 0.00 | 78 | 1014.4 |
| 20260902151607 | 86 | 240 | 6.0 | 11.0 | 0.00 | 0.00 | 0.00 | 79 | 1014.3 |
| 20260902151107 | 85 | 248 | 4.0 | 6.0 | 0.00 | 0.00 | 0.00 | 80 | 1014.2 |
| 20260902150602 | 85 | 198 | 4.0 | 14.0 | 0.00 | 0.00 | 0.00 | 80 | 1014.1 |
| 20260902150058 | 85 | 210 | 4.0 | 6.0 | 0.00 | 0.00 | 0.00 | 81 | 1014.2 |
| 20260902145557 | 85 | 181 | 3.0 | 10.0 | 0.00 | 0.00 | 0.00 | 81 | 1014.1 |
| 20260902145057 | 85 | 260 | 8.0 | 11.0 | 0.00 | 0.00 | 0.00 | 81 | 1014.1 |
| 20260902144555 | 84 | 185 | 5.0 | 7.0 | 0.00 | 0.00 | 0.00 | 81 | 1014.0 |
| 20260902144054 | 84 | 239 | 5.0 | 11.0 | 0.00 | 0.00 | 0.00 | 82 | 1014.1 |
| 20260902143550 | 84 | 263 | 2.0 | 7.0 | 0.00 | 0.00 | 0.00 | 82 | 1014.1 |
| 20260902143045 | 84 | 223 | 4.0 | 9.0 | 0.00 | 0.00 | 0.00 | 83 | 1014.0 |
| 20260902142543 | 84 | 249 | 5.0 | 9.0 | 0.00 | 0.00 | 0.00 | 83 | 1014.0 |
| 20260902142036 | 84 | 263 | 4.0 | 4.0 | 0.00 | 0.00 | 0.00 | 83 | 1014.1 |
| 20260902141536 | 84 | 210 | 3.0 | 3.0 | 0.00 | 0.00 | 0.00 | 84 | 1014.1 |
| 20260902141032 | 83 | 221 | 4.0 | 7.0 | 0.00 | 0.00 | 0.00 | 84 | 1014.0 |
| 20260902140532 | 83 | 196 | 5.0 | 8.0 | 0.00 | 0.00 | 0.00 | 85 | 1014.0 |
| 20260902140027 | 83 | 236 | 3.0 | 7.0 | 0.00 | 0.00 | 0.00 | 85 | 1013.9 |
| 20260902135526 | 83 | 217 | 3.0 | 8.0 | 0.00 | 0.00 | 0.00 | 85 | 1013.8 |
| 20260902135021 | 83 | 223 | 6.0 | 8.0 | 0.00 | 0.00 | 0.00 | 85 | 1014.0 |
| 20260902134517 | 83 | 232 | 3.0 | 6.0 | 0.00 | 0.00 | 0.00 | 86 | 1014.0 |
| 20260902134011 | 83 | 214 | 3.0 | 6.0 | 0.00 | 0.00 | 0.00 | 86 | 1014.0 |
| 20260902133506 | 83 | 173 | 2.0 | 7.0 | 0.00 | 0.00 | 0.00 | 86 | 1014.1 |
| 20260902133001 | 83 | 217 | 4.0 | 7.0 | 0.00 | 0.00 | 0.00 | 86 | 1014.0 |
| 20260902132456 | 82 | 250 | 6.0 | 8.0 | 0.00 | 0.00 | 0.00 | 86 | 1014.1 |
| 20260902131956 | 82 | 226 | 5.0 | 7.0 | 0.00 | 0.00 | 0.00 | 86 | 1013.8 |
| 20260902131453 | 82 | 230 | 3.0 | 7.0 | 0.00 | 0.00 | 0.00 | 86 | 1013.9 |
| 20260902130952 | 82 | 209 | 3.0 | 6.0 | 0.00 | 0.00 | 0.00 | 87 | 1013.7 |
| 20260902130448 | 82 | 245 | 3.0 | 6.0 | 0.00 | 0.00 | 0.00 | 87 | 1013.7 |
| 20260902125943 | 82 | 200 | 2.0 | 4.0 | 0.00 | 0.00 | 0.00 | 87 | 1013.6 |
| 20260902125439 | 82 | 239 | 3.0 | 9.0 | 0.00 | 0.00 | 0.00 | 87 | 1013.7 |
| 20260902124935 | 82 | 211 | 2.0 | 4.0 | 0.00 | 0.00 | 0.00 | 87 | 1013.7 |
| 20260902124431 | 82 | 174 | 3.0 | 6.0 | 0.00 | 0.00 | 0.00 | 87 | 1013.3 |
| 20260902123925 | 82 | 217 | 2.0 | 4.0 | 0.00 | 0.00 | 0.00 | 87 | 1013.4 |
| 20260902123422 | 82 | 225 | 4.0 | 6.0 | 0.00 | 0.00 | 0.00 | 87 | 1013.3 |
| 20260902122920 | 82 | 234 | 7.0 | 9.0 | 0.00 | 0.00 | 0.00 | 88 | 1013.2 |
| 20260902122416 | 82 | 164 | 1.0 | 6.0 | 0.00 | 0.00 | 0.00 | 88 | 1013.0 |
| 20260902121911 | 82 | 184 | 5.0 | 8.0 | 0.00 | 0.00 | 0.00 | 88 | 1012.7 |
| 20260902121406 | 81 | 217 | 4.0 | 7.0 | 0.00 | 0.00 | 0.00 | 88 | 1012.6 |
| 20260902120901 | 81 | 233 | 4.0 | 4.0 | 0.00 | 0.00 | 0.00 | 88 | 1012.4 |
| 20260902120358 | 81 | 199 | 3.0 | 7.0 | 0.00 | 0.00 | 0.00 | 88 | 1012.6 |
| 20260902115857 | 81 | 211 | 2.0 | 8.0 | 0.00 | 0.00 | 0.00 | 88 | 1012.6 |
| 20260902115353 | 81 | 164 | 3.0 | 7.0 | 0.00 | 0.00 | 0.00 | 88 | 1012.8 |
| 20260902114850 | 81 | 211 | 4.0 | 4.0 | 0.00 | 0.00 | 0.00 | 88 | 1012.6 |
| 20260902114345 | 81 | 221 | 3.0 | 7.0 | 0.00 | 0.00 | 0.00 | 88 | 1012.7 |
| 20260902113840 | 81 | 217 | 4.0 | 8.0 | 0.00 | 0.00 | 0.00 | 88 | 1012.5 |
| 20260902113336 | 81 | 213 | 4.0 | 8.0 | 0.00 | 0.00 | 0.00 | 88 | 1012.7 |
| 20260902112835 | 81 | 188 | 3.0 | 6.0 | 0.00 | 0.00 | 0.00 | 88 | 1012.6 |
| 20260902112332 | 81 | 197 | 3.0 | 9.0 | 0.00 | 0.00 | 0.00 | 88 | 1012.6 |
| 20260902111827 | 81 | 188 | 2.0 | 6.0 | 0.00 | 0.00 | 0.00 | 88 | 1012.7 |
| 20260902111324 | 81 | 218 | 4.0 | 6.0 | 0.00 | 0.00 | 0.00 | 88 | 1012.7 |
| 20260902110819 | 81 | 180 | 2.0 | 6.0 | 0.00 | 0.00 | 0.00 | 88 | 1012.5 |
| 20260902110314 | 81 | 210 | 2.0 | 4.0 | 0.00 | 0.00 | 0.00 | 88 | 1012.6 |
| 20260902105809 | 81 | 225 | 4.0 | 6.0 | 0.00 | 0.00 | 0.00 | 88 | 1012.7 |
| 20260902105306 | 81 | 193 | 2.0 | 7.0 | 0.00 | 0.00 | 0.00 | 88 | 1012.7 |
| 20260902104759 | 81 | 235 | 4.0 | 7.0 | 0.00 | 0.00 | 0.00 | 88 | 1012.8 |
| 20260902104255 | 81 | 202 | 4.0 | 6.0 | 0.00 | 0.00 | 0.00 | 88 | 1012.7 |
| 20260902103755 | 81 | 233 | 3.0 | 7.0 | 0.00 | 0.00 | 0.00 | 88 | 1012.8 |
| 20260902103254 | 81 | 170 | 1.0 | 4.0 | 0.00 | 0.00 | 0.00 | 88 | 1012.7 |
| 20260902102749 | 81 | 273 | 3.0 | 4.0 | 0.00 | 0.00 | 0.00 | 88 | 1012.8 |
| 20260902102247 | 81 | 157 | 1.0 | 4.0 | 0.00 | 0.00 | 0.00 | 88 | 1012.5 |
| 20260902101742 | 81 | 200 | 3.0 | 4.0 | 0.00 | 0.00 | 0.00 | 87 | 1012.5 |
| 20260902101237 | 81 | 227 | 5.0 | 7.0 | 0.00 | 0.00 | 0.00 | 87 | 1012.3 |
| 20260902100736 | 81 | 219 | 3.0 | 6.0 | 0.00 | 0.00 | 0.00 | 87 | 1012.4 |
| 20260902100231 | 81 | 226 | 5.0 | 7.0 | 0.00 | 0.00 | 0.00 | 87 | 1012.6 |
| 20260902095726 | 81 | 236 | 5.0 | 6.0 | 0.00 | 0.00 | 0.00 | 87 | 1012.3 |
| 20260902095226 | 81 | 248 | 5.0 | 8.0 | 0.00 | 0.00 | 0.00 | 87 | 1012.5 |
| 20260902094720 | 81 | 251 | 4.0 | 6.0 | 0.00 | 0.00 | 0.00 | 87 | 1012.2 |
| 20260902094217 | 81 | 172 | 2.0 | 4.0 | 0.00 | 0.00 | 0.00 | 86 | 1012.4 |
| 20260902093716 | 81 | 253 | 4.0 | 6.0 | 0.00 | 0.00 | 0.00 | 86 | 1012.6 |
| 20260902093212 | 82 | 171 | 1.0 | 6.0 | 0.00 | 0.00 | 0.00 | 86 | 1012.4 |
| 20260902092711 | 82 | 157 | 3.0 | 4.0 | 0.00 | 0.00 | 0.00 | 86 | 1012.4 |
| 20260902092207 | 82 | 221 | 3.0 | 8.0 | 0.00 | 0.00 | 0.00 | 85 | 1012.5 |
| 20260902091700 | 82 | 222 | 4.0 | 4.0 | 0.00 | 0.00 | 0.00 | 85 | 1012.7 |
| 20260902091157 | 82 | 247 | 4.0 | 4.0 | 0.00 | 0.00 | 0.00 | 85 | 1012.4 |
| 20260902090653 | 82 | 183 | 1.0 | 2.0 | 0.00 | 0.00 | 0.00 | 84 | 1012.3 |
| 20260902090152 | 82 | 217 | 3.0 | 6.0 | 0.00 | 0.00 | 0.00 | 84 | 1012.6 |
| 20260902085652 | 82 | 230 | 4.0 | 7.0 | 0.00 | 0.00 | 0.00 | 84 | 1012.3 |
| 20260902085147 | 82 | 256 | 5.0 | 6.0 | 0.00 | 0.00 | 0.00 | 84 | 1012.4 |
| 20260902084643 | 82 | 202 | 3.0 | 6.0 | 0.00 | 0.00 | 0.00 | 84 | 1012.4 |
| 20260902084139 | 82 | 316 | 3.0 | 4.0 | 0.00 | 0.00 | 0.00 | 84 | 1012.3 |
| 20260902083634 | 82 | 232 | 2.0 | 4.0 | 0.00 | 0.00 | 0.00 | 84 | 1012.5 |
| 20260902083133 | 82 | 215 | 3.0 | 6.0 | 0.00 | 0.00 | 0.00 | 84 | 1012.3 |
| 20260902082629 | 82 | 234 | 3.0 | 7.0 | 0.00 | 0.00 | 0.00 | 84 | 1012.4 |
| 20260902082126 | 82 | 205 | 4.0 | 8.0 | 0.00 | 0.00 | 0.00 | 84 | 1012.5 |
| 20260902081622 | 82 | 189 | 2.0 | 4.0 | 0.00 | 0.00 | 0.00 | 83 | 1012.4 |
| 20260902081122 | 82 | 226 | 0.0 | 4.0 | 0.00 | 0.00 | 0.00 | 83 | 1012.3 |
| 20260902080617 | 82 | 187 | 4.0 | 8.0 | 0.00 | 0.00 | 0.00 | 83 | 1012.5 |
| 20260902080114 | 82 | 217 | 2.0 | 6.0 | 0.00 | 0.00 | 0.00 | 83 | 1012.4 |
| 20260902075613 | 82 | 234 | 3.0 | 4.0 | 0.00 | 0.00 | 0.00 | 83 | 1012.5 |
| 20260902075109 | 82 | 247 | 3.0 | 8.0 | 0.00 | 0.00 | 0.00 | 83 | 1012.5 |
| 20260902074604 | 82 | 171 | 2.0 | 4.0 | 0.00 | 0.00 | 0.00 | 83 | 1012.5 |
| 20260902074059 | 82 | 207 | 2.0 | 4.0 | 0.00 | 0.00 | 0.00 | 83 | 1012.4 |
| 20260902073554 | 82 | 218 | 3.0 | 14.0 | 0.00 | 0.00 | 0.00 | 83 | 1012.4 |
| 20260902073051 | 82 | 214 | 3.0 | 4.0 | 0.00 | 0.00 | 0.00 | 83 | 1012.5 |
| 20260902072547 | 82 | 207 | 4.0 | 7.0 | 0.00 | 0.00 | 0.00 | 83 | 1012.6 |
| 20260902072043 | 82 | 188 | 2.0 | 6.0 | 0.00 | 0.00 | 0.00 | 83 | 1012.5 |
| 20260902071542 | 83 | 155 | 2.0 | 6.0 | 0.00 | 0.00 | 0.00 | 82 | 1012.5 |
| 20260902071039 | 83 | 216 | 3.0 | 6.0 | 0.00 | 0.00 | 0.00 | 82 | 1012.6 |
| 20260902070534 | 83 | 185 | 2.0 | 3.0 | 0.00 | 0.00 | 0.00 | 82 | 1012.6 |
| 20260902070029 | 83 | 223 | 2.0 | 6.0 | 0.00 | 0.00 | 0.00 | 82 | 1012.4 |
| 20260902065523 | 83 | 225 | 5.0 | 9.0 | 0.00 | 0.00 | 0.00 | 82 | 1012.5 |
| 20260902065019 | 83 | 152 | 3.0 | 6.0 | 0.00 | 0.00 | 0.00 | 81 | 1012.4 |
| 20260902064514 | 83 | 234 | 3.0 | 7.0 | 0.00 | 0.00 | 0.00 | 81 | 1012.3 |
| 20260902064010 | 83 | 167 | 2.0 | 3.0 | 0.00 | 0.00 | 0.00 | 81 | 1012.4 |
| 20260902063510 | 83 | 216 | 4.0 | 8.0 | 0.00 | 0.00 | 0.00 | 81 | 1012.3 |
| 20260902063005 | 83 | 206 | 3.0 | 7.0 | 0.00 | 0.00 | 0.00 | 80 | 1012.4 |
| 20260902062503 | 84 | 211 | 3.0 | 8.0 | 0.00 | 0.00 | 0.00 | 80 | 1012.3 |
| 20260902061958 | 84 | 194 | 5.0 | 7.0 | 0.00 | 0.00 | 0.00 | 79 | 1012.5 |
| 20260902061453 | 84 | 203 | 6.0 | 10.0 | 0.00 | 0.00 | 0.00 | 79 | 1012.2 |
| 20260902060949 | 84 | 225 | 5.0 | 7.0 | 0.00 | 0.00 | 0.00 | 78 | 1012.2 |
| 20260902060445 | 84 | 226 | 6.0 | 11.0 | 0.00 | 0.00 | 0.00 | 76 | 1012.3 |
| 20260902055942 | 84 | 216 | 3.0 | 6.0 | 0.00 | 0.00 | 0.00 | 75 | 1012.3 |
| 20260902055437 | 84 | 215 | 5.0 | 9.0 | 0.00 | 0.00 | 0.00 | 73 | 1012.3 |
| 20260902054932 | 83 | 200 | 3.0 | 4.0 | 0.00 | 0.00 | 0.00 | 72 | 1012.3 |
| 20260902054427 | 83 | 205 | 3.0 | 7.0 | 0.00 | 0.00 | 0.00 | 71 | 1012.1 |
| 20260902053922 | 83 | 189 | 3.0 | 7.0 | 0.00 | 0.00 | 0.00 | 71 | 1012.2 |
| 20260902053418 | 83 | 204 | 3.0 | 6.0 | 0.00 | 0.00 | 0.00 | 71 | 1012.5 |
| 20260902052917 | 83 | 176 | 2.0 | 2.0 | 0.00 | 0.00 | 0.00 | 71 | 1012.4 |
| 20260902052412 | 83 | 203 | 2.0 | 3.0 | 0.00 | 0.00 | 0.00 | 71 | 1012.6 |
| 20260902051908 | 83 | 209 | 1.0 | 4.0 | 0.00 | 0.00 | 0.00 | 70 | 1012.5 |
| 20260902051408 | 83 | 227 | 1.0 | 3.0 | 0.00 | 0.00 | 0.00 | 70 | 1012.5 |
| 20260902050906 | 83 | 186 | 2.0 | 2.0 | 0.00 | 0.00 | 0.00 | 71 | 1012.5 |
| 20260902050401 | 83 | 202 | 2.0 | 3.0 | 0.00 | 0.00 | 0.00 | 70 | 1012.7 |
| 20260902045856 | 83 | 227 | 2.0 | 2.0 | 0.00 | 0.00 | 0.00 | 70 | 1012.5 |
| 20260902045352 | 83 | 213 | 1.0 | 3.0 | 0.00 | 0.00 | 0.00 | 70 | 1012.5 |
| 20260902044848 | 83 | 228 | 2.0 | 2.0 | 0.00 | 0.00 | 0.00 | 71 | 1012.5 |
| 20260902044343 | 83 | 178 | 1.0 | 2.0 | 0.00 | 0.00 | 0.00 | 71 | 1012.6 |
| 20260902043843 | 84 | 35 | 2.0 | 4.0 | 0.00 | 0.00 | 0.00 | 71 | 1012.6 |
| 20260902043339 | 84 | 61 | 4.0 | 4.0 | 0.00 | 0.00 | 0.00 | 70 | 1012.6 |
| 20260902042838 | 84 | 275 | 2.0 | 4.0 | 0.00 | 0.00 | 0.00 | 70 | 1012.5 |
| 20260902042338 | 84 | 186 | 1.0 | 2.0 | 0.00 | 0.00 | 0.00 | 71 | 1012.5 |
| 20260902041833 | 84 | 298 | 3.0 | 4.0 | 0.00 | 0.00 | 0.00 | 71 | 1012.7 |
| 20260902041333 | 84 | 274 | 2.0 | 3.0 | 0.00 | 0.00 | 0.00 | 71 | 1012.5 |
| 20260902040832 | 84 | 221 | 2.0 | 2.0 | 0.00 | 0.00 | 0.00 | 71 | 1012.6 |
| 20260902040328 | 83 | 182 | 2.0 | 3.0 | 0.00 | 0.00 | 0.00 | 72 | 1012.6 |
| 20260902035826 | 83 | 214 | 2.0 | 3.0 | 0.00 | 0.00 | 0.00 | 72 | 1012.6 |
| 20260902035322 | 83 | 212 | 0.0 | 2.0 | 0.00 | 0.00 | 0.00 | 72 | 1012.8 |
| 20260902034821 | 83 | 185 | 1.0 | 3.0 | 0.00 | 0.00 | 0.00 | 72 | 1012.8 |
| 20260902034316 | 83 | 204 | 1.0 | 3.0 | 0.00 | 0.00 | 0.00 | 72 | 1012.9 |
| 20260902033814 | 84 | 253 | 2.0 | 2.0 | 0.00 | 0.00 | 0.00 | 72 | 1012.9 |
| 20260902033310 | 83 | 156 | 1.0 | 2.0 | 0.00 | 0.00 | 0.00 | 72 | 1012.9 |
| 20260902032808 | 83 | 161 | 1.0 | 2.0 | 0.00 | 0.00 | 0.00 | 72 | 1012.9 |
| 20260902032306 | 84 | 161 | 1.0 | 2.0 | 0.00 | 0.00 | 0.00 | 72 | 1013.0 |
| 20260902031803 | 84 | 208 | 2.0 | 4.0 | 0.00 | 0.00 | 0.00 | 72 | 1012.8 |
| 20260902031259 | 84 | 211 | 1.0 | 2.0 | 0.00 | 0.00 | 0.00 | 72 | 1012.7 |
| 20260902030754 | 84 | 279 | 2.0 | 3.0 | 0.00 | 0.00 | 0.00 | 72 | 1012.7 |
| 20260902030249 | 84 | 275 | 3.0 | 3.0 | 0.00 | 0.00 | 0.00 | 72 | 1012.4 |
| 20260902025748 | 84 | 221 | 2.0 | 3.0 | 0.00 | 0.00 | 0.00 | 72 | 1012.4 |
| 20260902025243 | 83 | 120 | 2.0 | 3.0 | 0.00 | 0.00 | 0.00 | 72 | 1012.3 |
| 20260902024738 | 83 | 243 | 1.0 | 1.0 | 0.00 | 0.00 | 0.00 | 72 | 1012.2 |
| 20260902024234 | 83 | 173 | 0.0 | 1.0 | 0.00 | 0.00 | 0.00 | 72 | 1012.3 |
| 20260902023730 | 83 | 146 | 1.0 | 2.0 | 0.00 | 0.00 | 0.00 | 72 | 1012.1 |
| 20260902023224 | 83 | 155 | 1.0 | 2.0 | 0.00 | 0.00 | 0.00 | 72 | 1012.1 |
| 20260902022724 | 83 | 104 | 2.0 | 3.0 | 0.00 | 0.00 | 0.00 | 72 | 1012.1 |
| 20260902022214 | 83 | 329 | 3.0 | 3.0 | 0.00 | 0.00 | 0.00 | 72 | 1012.0 |
| 20260902021710 | 83 | 209 | 2.0 | 2.0 | 0.00 | 0.00 | 0.00 | 72 | 1012.0 |
| 20260902021209 | 83 | 162 | 1.0 | 3.0 | 0.00 | 0.00 | 0.00 | 73 | 1012.1 |
| 20260902020705 | 83 | 126 | 2.0 | 3.0 | 0.00 | 0.00 | 0.00 | 73 | 1011.9 |
| 20260902020201 | 83 | 338 | 2.0 | 2.0 | 0.00 | 0.00 | 0.00 | 73 | 1011.9 |
| 20260902015656 | 83 | 140 | 1.0 | 1.0 | 0.00 | 0.00 | 0.00 | 72 | 1011.6 |
| 20260902015153 | 83 | 160 | 1.0 | 3.0 | 0.00 | 0.00 | 0.00 | 72 | 1011.3 |
| 20260902014648 | 83 | 310 | 2.0 | 3.0 | 0.00 | 0.00 | 0.00 | 72 | 1011.6 |
| 20260902014144 | 83 | 327 | 4.0 | 6.0 | 0.00 | 0.00 | 0.00 | 72 | 1011.4 |
| 20260902013643 | 83 | 249 | 3.0 | 3.0 | 0.00 | 0.00 | 0.00 | 72 | 1011.3 |
| 20260902013139 | 83 | 132 | 2.0 | 2.0 | 0.00 | 0.00 | 0.00 | 72 | 1011.3 |
| 20260902012634 | 84 | 148 | 1.0 | 3.0 | 0.00 | 0.00 | 0.00 | 71 | 1011.3 |
| 20260902012130 | 84 | 332 | 4.0 | 4.0 | 0.00 | 0.00 | 0.00 | 71 | 1011.3 |
| 20260902011625 | 84 | 354 | 3.0 | 4.0 | 0.00 | 0.00 | 0.00 | 71 | 1011.4 |
| 20260902011126 | 84 | 156 | 2.0 | 4.0 | 0.00 | 0.00 | 0.00 | 71 | 1011.1 |
| 20260902010625 | 84 | 168 | 2.0 | 4.0 | 0.00 | 0.00 | 0.00 | 72 | 1011.3 |
| 20260902010120 | 84 | 110 | 1.0 | 2.0 | 0.00 | 0.00 | 0.00 | 71 | 1011.1 |
| 20260902005618 | 84 | 171 | 2.0 | 2.0 | 0.00 | 0.00 | 0.00 | 71 | 1011.1 |
| 20260902005114 | 84 | 128 | 0.0 | 2.0 | 0.00 | 0.00 | 0.00 | 71 | 1011.3 |
| 20260902004613 | 84 | 173 | 1.0 | 3.0 | 0.00 | 0.00 | 0.00 | 71 | 1011.3 |
| 20260902004108 | 84 | 284 | 2.0 | 3.0 | 0.00 | 0.00 | 0.00 | 71 | 1011.5 |
| 20260902003604 | 84 | 184 | 2.0 | 2.0 | 0.00 | 0.00 | 0.00 | 71 | 1011.6 |
| 20260902003059 | 84 | 106 | 2.0 | 3.0 | 0.00 | 0.00 | 0.00 | 71 | 1011.5 |
| 20260902002555 | 84 | 29 | 2.0 | 3.0 | 0.00 | 0.00 | 0.00 | 71 | 1011.4 |
| 20260902002055 | 84 | 161 | 2.0 | 4.0 | 0.00 | 0.00 | 0.00 | 71 | 1011.4 |
| 20260902001550 | 84 | 45 | 5.0 | 7.0 | 0.00 | 0.00 | 0.00 | 71 | 1011.6 |
| 20260902001046 | 84 | 177 | 4.0 | 6.0 | 0.00 | 0.00 | 0.00 | 73 | 1011.3 |
| 20260902000540 | 84 | 27 | 5.0 | 8.0 | 0.00 | 0.00 | 0.00 | 73 | 1011.4 |
| 20260902000036 | 84 | 51 | 4.0 | 9.0 | 0.00 | 0.00 | 0.00 | 73 | 1011.5 |
| 20260901235530 | 84 | 71 | 4.0 | 10.0 | 0.00 | 0.00 | 0.00 | 73 | 1011.1 |
| 20260901235026 | 84 | 358 | 4.0 | 9.0 | 0.00 | 0.00 | 0.00 | 74 | 1011.4 |
| 20260901234524 | 84 | 53 | 8.0 | 10.0 | 0.00 | 0.00 | 0.00 | 74 | 1011.4 |
| 20260901234020 | 84 | 356 | 7.0 | 10.0 | 0.00 | 0.00 | 0.00 | 74 | 1011.1 |
| 20260901233514 | 84 | 7 | 6.0 | 9.0 | 0.00 | 0.00 | 0.00 | 74 | 1011.5 |
| 20260901233010 | 84 | 20 | 4.0 | 8.0 | 0.00 | 0.00 | 0.00 | 74 | 1011.5 |
| 20260901232505 | 85 | 28 | 4.0 | 8.0 | 0.00 | 0.00 | 0.00 | 73 | 1011.5 |
| 20260901232000 | 85 | 336 | 7.0 | 10.0 | 0.00 | 0.00 | 0.00 | 73 | 1011.5 |
| 20260901231457 | 85 | 52 | 4.0 | 8.0 | 0.00 | 0.00 | 0.00 | 74 | 1011.5 |
| 20260901230953 | 85 | 238 | 7.0 | 13.0 | 0.00 | 0.00 | 0.00 | 74 | 1011.8 |
| 20260901230453 | 85 | 21 | 9.0 | 10.0 | 0.00 | 0.00 | 0.00 | 74 | 1012.0 |
| 20260901225948 | 86 | 23 | 10.0 | 11.0 | 0.00 | 0.00 | 0.00 | 74 | 1011.8 |
| 20260901225447 | 86 | 352 | 6.0 | 11.0 | 0.00 | 0.00 | 0.00 | 72 | 1011.8 |
| 20260901224942 | 87 | 33 | 6.0 | 8.0 | 0.00 | 0.00 | 0.00 | 68 | 1011.9 |
| 20260901224438 | 88 | 78 | 5.0 | 7.0 | 0.00 | 0.00 | 0.00 | 67 | 1011.8 |
| 20260901223934 | 88 | 22 | 7.0 | 10.0 | 0.00 | 0.00 | 0.00 | 64 | 1011.7 |
| 20260901223429 | 89 | 313 | 7.0 | 8.0 | 0.00 | 0.00 | 0.00 | 62 | 1011.8 |
| 20260901222925 | 89 | 358 | 6.0 | 8.0 | 0.00 | 0.00 | 0.00 | 60 | 1011.8 |
| 20260901222422 | 89 | 91 | 3.0 | 6.0 | 0.00 | 0.00 | 0.00 | 61 | 1011.5 |
| 20260901221917 | 89 | 110 | 2.0 | 4.0 | 0.00 | 0.00 | 0.00 | 61 | 1011.6 |
| 20260901221413 | 89 | 75 | 4.0 | 4.0 | 0.00 | 0.00 | 0.00 | 61 | 1011.6 |
| 20260901220908 | 90 | 24 | 3.0 | 6.0 | 0.00 | 0.00 | 0.00 | 61 | 1011.7 |
| 20260901220407 | 90 | 227 | 2.0 | 3.0 | 0.00 | 0.00 | 0.00 | 61 | 1011.8 |
| 20260901215905 | 89 | 1 | 4.0 | 8.0 | 0.00 | 0.00 | 0.00 | 60 | 1011.8 |
| 20260901215405 | 89 | 81 | 2.0 | 3.0 | 0.00 | 0.00 | 0.00 | 60 | 1011.9 |
| 20260901214904 | 89 | 190 | 2.0 | 3.0 | 0.00 | 0.00 | 0.00 | 61 | 1012.0 |
| 20260901214403 | 89 | 86 | 3.0 | 6.0 | 0.00 | 0.00 | 0.00 | 60 | 1012.2 |
| 20260901213902 | 89 | 139 | 3.0 | 4.0 | 0.00 | 0.00 | 0.00 | 60 | 1012.2 |
| 20260901213358 | 89 | 149 | 1.0 | 3.0 | 0.00 | 0.00 | 0.00 | 60 | 1012.2 |
| 20260901212856 | 89 | 84 | 1.0 | 2.0 | 0.00 | 0.00 | 0.00 | 59 | 1012.3 |
| 20260901212352 | 89 | 48 | 2.0 | 4.0 | 0.00 | 0.00 | 0.00 | 59 | 1012.3 |
| 20260901211848 | 89 | 299 | 4.0 | 4.0 | 0.00 | 0.00 | 0.00 | 59 | 1012.2 |
| 20260901211343 | 89 | 168 | 2.0 | 2.0 | 0.00 | 0.00 | 0.00 | 59 | 1012.3 |
| 20260901210839 | 89 | 245 | 2.0 | 3.0 | 0.00 | 0.00 | 0.00 | 60 | 1012.1 |
| 20260901210334 | 88 | 320 | 4.0 | 6.0 | 0.00 | 0.00 | 0.00 | 60 | 1012.1 |
| 20260901205831 | 88 | 359 | 4.0 | 4.0 | 0.00 | 0.00 | 0.00 | 60 | 1012.0 |
| 20260901205331 | 88 | 77 | 3.0 | 7.0 | 0.00 | 0.00 | 0.00 | 60 | 1012.0 |
| 20260901204826 | 88 | 338 | 3.0 | 4.0 | 0.00 | 0.00 | 0.00 | 61 | 1012.0 |
| 20260901204323 | 88 | 301 | 4.0 | 4.0 | 0.00 | 0.00 | 0.00 | 62 | 1011.8 |
| 20260901203822 | 88 | 166 | 2.0 | 3.0 | 0.00 | 0.00 | 0.00 | 64 | 1011.9 |
| 20260901203317 | 88 | 343 | 4.0 | 4.0 | 0.00 | 0.00 | 0.00 | 64 | 1012.1 |
| 20260901202812 | 88 | 126 | 1.0 | 2.0 | 0.00 | 0.00 | 0.00 | 63 | 1012.0 |
| 20260901202307 | 88 | 162 | 0.0 | 0.0 | 0.00 | 0.00 | 0.00 | 65 | 1012.2 |
| 20260901201803 | 87 | 160 | 1.0 | 2.0 | 0.00 | 0.00 | 0.00 | 64 | 1012.3 |
| 20260901201303 | 88 | 337 | 4.0 | 6.0 | 0.00 | 0.00 | 0.00 | 64 | 1012.4 |
| 20260901200801 | 88 | 60 | 1.0 | 2.0 | 0.00 | 0.00 | 0.00 | 64 | 1012.6 |
| 20260901200257 | 88 | 38 | 2.0 | 3.0 | 0.00 | 0.00 | 0.00 | 63 | 1012.8 |
| 20260901195755 | 88 | 98 | 4.0 | 7.0 | 0.00 | 0.00 | 0.00 | 63 | 1012.9 |
| 20260901195249 | 88 | 41 | 2.0 | 4.0 | 0.00 | 0.00 | 0.00 | 64 | 1013.1 |
| 20260901194745 | 88 | 134 | 2.0 | 4.0 | 0.00 | 0.00 | 0.00 | 64 | 1013.2 |
| 20260901194239 | 89 | 12 | 4.0 | 6.0 | 0.00 | 0.00 | 0.00 | 63 | 1013.3 |
| 20260901193736 | 89 | 121 | 3.0 | 6.0 | 0.00 | 0.00 | 0.00 | 63 | 1013.4 |
| 20260901193234 | 89 | 87 | 1.0 | 3.0 | 0.00 | 0.00 | 0.00 | 62 | 1013.2 |
| 20260901192729 | 89 | 333 | 3.0 | 7.0 | 0.00 | 0.00 | 0.00 | 62 | 1013.1 |
| 20260901192225 | 89 | 88 | 3.0 | 3.0 | 0.00 | 0.00 | 0.00 | 60 | 1013.1 |
| 20260901191721 | 89 | 47 | 4.0 | 4.0 | 0.00 | 0.00 | 0.00 | 61 | 1013.1 |
| 20260901191218 | 89 | 165 | 1.0 | 2.0 | 0.00 | 0.00 | 0.00 | 62 | 1013.2 |
| 20260901190712 | 89 | 177 | 1.0 | 1.0 | 0.00 | 0.00 | 0.00 | 62 | 1013.3 |
| 20260901190211 | 89 | 58 | 2.0 | 3.0 | 0.00 | 0.00 | 0.00 | 62 | 1013.2 |
| 20260901185710 | 89 | 143 | 0.0 | 1.0 | 0.00 | 0.00 | 0.00 | 61 | 1013.3 |
| 20260901185208 | 89 | 305 | 3.0 | 4.0 | 0.00 | 0.00 | 0.00 | 62 | 1013.2 |